FW7499 Weather Reports


time (UTC)temp
C
wind
direction
speed
KPH
gust
KPH
rain 1hr
cm
rain 24hr
cm
rain mn
cm
humidity
%
barometer
mb
20260902223019 35 167 3.2 11.3 0.00 0.00 0.00 47 1010.0
20260902222505 35 134 1.6 8.0 0.00 0.00 0.00 47 1010.1
20260902222011 35 18 1.6 11.3 0.00 0.00 0.00 47 1010.0
20260902221530 35 9 3.2 14.5 0.00 0.00 0.00 47 1010.0
20260902221009 35 47 3.2 14.5 0.00 0.00 0.00 47 1010.0
20260902220517 35 137 1.6 17.7 0.00 0.00 0.00 48 1010.1
20260902220028 35 242 4.8 17.7 0.00 0.00 0.00 48 1010.0
20260902215514 35 167 3.2 12.9 0.00 0.00 0.00 48 1010.1
20260902215007 35 30 4.8 12.9 0.00 0.00 0.00 46 1010.1
20260902214512 35 217 3.2 12.9 0.00 0.00 0.00 46 1010.1
20260902214007 35 263 3.2 12.9 0.00 0.00 0.00 47 1010.1
20260902213509 35 258 1.6 9.7 0.00 0.00 0.00 47 1010.1
20260902213014 35 262 1.6 9.7 0.00 0.00 0.00 47 1010.1
20260902212511 35 136 1.6 14.5 0.00 0.00 0.00 49 1010.2
20260902212014 35 215 3.2 14.5 0.00 0.00 0.00 47 1010.1
20260902211512 35 316 3.2 19.3 0.00 0.00 0.00 47 1010.2
20260902211011 35 264 4.8 16.1 0.00 0.00 0.00 45 1010.2
20260902210511 35 301 3.2 19.3 0.00 0.00 0.00 47 1010.2
20260902210047 35 273 3.2 19.3 0.00 0.00 0.00 46 1010.4
20260902205507 35 227 4.8 19.3 0.00 0.00 0.00 47 1010.4
20260902205009 35 251 3.2 14.5 0.00 0.00 0.00 49 1010.4
20260902204533 35 83 3.2 14.5 0.00 0.00 0.00 47 1010.5
20260902204014 35 329 3.2 14.5 0.00 0.00 0.00 47 1010.5
20260902203506 35 223 3.2 19.3 0.00 0.00 0.00 49 1010.6
20260902203012 35 248 6.4 19.3 0.00 0.00 0.00 47 1010.7
20260902202511 35 269 6.4 19.3 0.00 0.00 0.00 47 1010.7
20260902202010 35 98 3.2 17.7 0.00 0.00 0.00 47 1010.7
20260902201524 35 304 4.8 17.7 0.00 0.00 0.00 47 1010.7
20260902201009 35 333 1.6 16.1 0.00 0.00 0.00 47 1010.8
20260902200513 35 336 3.2 17.7 0.00 0.00 0.00 46 1010.7
20260902200016 35 289 3.2 17.7 0.00 0.00 0.00 45 1010.7
20260902195508 35 246 1.6 11.3 0.00 0.00 0.00 48 1010.7
20260902195015 35 299 3.2 12.9 0.00 0.00 0.00 50 1010.8
20260902194534 35 282 3.2 12.9 0.00 0.00 0.00 49 1010.8
20260902194011 34 54 3.2 8.0 0.00 0.00 0.00 49 1010.9
20260902193514 33 39 1.6 12.9 0.00 0.00 0.00 51 1011.0
20260902193016 33 285 3.2 12.9 0.00 0.00 0.00 50 1011.1
20260902192508 34 173 1.6 9.7 0.00 0.00 0.00 52 1011.1
20260902192011 33 317 1.6 12.9 0.00 0.00 0.00 51 1011.2
20260902191517 33 128 4.8 12.9 0.00 0.00 0.00 48 1011.2
20260902191010 33 226 1.6 8.0 0.00 0.00 0.00 48 1011.1
20260902190517 33 79 1.6 6.4 0.00 0.00 0.00 50 1011.2
20260902190034 33 11 0.0 11.3 0.00 0.00 0.00 50 1011.3
20260902185517 33 346 1.6 11.3 0.00 0.00 0.00 51 1011.3
20260902185011 32 198 3.2 11.3 0.00 0.00 0.00 50 1011.5
20260902184531 32 218 1.6 9.7 0.00 0.00 0.00 51 1011.6
20260902184016 32 241 3.2 9.7 0.00 0.00 0.00 52 1011.7
20260902183515 32 80 1.6 8.0 0.00 0.00 0.00 52 1011.6
20260902183021 33 167 1.6 6.4 0.00 0.00 0.00 52 1011.6
20260902182517 33 284 1.6 8.0 0.00 0.00 0.00 52 1011.7
20260902182019 32 12 3.2 8.0 0.00 0.00 0.00 53 1011.8
20260902181516 32 160 1.6 9.7 0.00 0.00 0.00 55 1011.9
20260902181014 31 275 3.2 9.7 0.00 0.00 0.00 55 1012.0
20260902180513 31 226 1.6 9.7 0.00 0.00 0.00 55 1012.0
20260902180020 31 80 0.0 9.7 0.00 0.00 0.00 54 1012.1
20260902175516 31 259 1.6 9.7 0.00 0.00 0.00 53 1012.1
20260902175012 31 187 3.2 11.3 0.00 0.00 0.00 53 1012.2
20260902174525 32 47 1.6 11.3 0.00 0.00 0.00 54 1012.2
20260902174011 32 269 1.6 9.7 0.00 0.00 0.00 52 1012.3
20260902173516 32 288 1.6 11.3 0.00 0.00 0.00 53 1012.3
20260902173030 32 360 3.2 12.9 0.00 0.00 0.00 53 1012.4
20260902172519 31 227 4.8 12.9 0.00 0.00 0.00 52 1012.4
20260902172014 31 291 1.6 6.4 0.00 0.00 0.00 54 1012.4
20260902171529 31 120 1.6 9.7 0.00 0.00 0.00 54 1012.4
20260902171016 32 165 0.0 11.3 0.00 0.00 0.00 53 1012.4
20260902170512 31 214 3.2 11.3 0.00 0.00 0.00 55 1012.4
20260902170025 31 267 1.6 6.4 0.00 0.00 0.00 57 1012.5
20260902165512 31 327 0.0 4.8 0.00 0.00 0.00 57 1012.5
20260902165013 31 350 1.6 6.4 0.00 0.00 0.00 55 1012.4
20260902164524 31 296 1.6 6.4 0.00 0.00 0.00 55 1012.5
20260902164015 31 99 1.6 6.4 0.00 0.00 0.00 55 1012.5
20260902163516 29 217 1.6 6.4 0.00 0.00 0.00 58 1012.5
20260902163027 30 246 0.0 3.2 0.00 0.00 0.00 58 1012.5
20260902162513 30 248 0.0 6.4 0.00 0.00 0.00 57 1012.5
20260902162015 30 224 1.6 12.9 0.00 0.00 0.00 53 1012.5
20260902161529 30 349 3.2 12.9 0.00 0.00 0.00 52 1012.5
20260902161013 31 263 1.6 9.7 0.00 0.00 0.00 52 1012.5
20260902160516 31 293 3.2 8.0 0.00 0.00 0.00 54 1012.5
20260902160024 30 263 1.6 6.4 0.00 0.00 0.00 60 1012.5
20260902155520 29 296 1.6 3.2 0.00 0.00 0.00 63 1012.4
20260902155020 28 205 0.0 3.2 0.00 0.00 0.00 66 1012.5
20260902154522 27 57 0.0 3.2 0.00 0.00 0.00 64 1012.6
20260902154013 28 250 0.0 3.2 0.00 0.00 0.00 64 1012.5
20260902153514 27 232 0.0 8.0 0.00 0.00 0.00 63 1012.5
20260902153029 27 184 0.0 8.0 0.00 0.00 0.00 65 1012.6
20260902152515 27 213 0.0 8.0 0.00 0.00 0.00 63 1012.6
20260902152016 27 266 0.0 8.0 0.00 0.00 0.00 63 1012.5
20260902151526 28 253 0.0 6.4 0.00 0.00 0.00 65 1012.6
20260902151017 28 184 0.0 6.4 0.00 0.00 0.00 64 1012.5
20260902150512 27 213 1.6 4.8 0.00 0.00 0.00 66 1012.5
20260902150029 27 146 0.0 3.2 0.00 0.00 0.00 68 1012.5
20260902145516 27 121 0.0 3.2 0.00 0.00 0.00 67 1012.5
20260902145018 26 205 0.0 3.2 0.00 0.00 0.00 71 1012.4
20260902144537 26 165 1.6 3.2 0.00 0.00 0.00 69 1012.4
20260902144014 26 269 1.6 3.2 0.00 0.00 0.00 69 1012.5
20260902143517 25 40 0.0 3.2 0.00 0.00 0.00 72 1012.5
20260902143033 25 30 0.0 3.2 0.00 0.00 0.00 74 1012.4
20260902142513 25 332 0.0 3.2 0.00 0.00 0.00 70 1012.5
20260902142013 25 332 1.6 6.4 0.00 0.00 0.00 70 1012.6
20260902141508 25 113 1.6 6.4 0.00 0.00 0.00 68 1012.4
20260902141003 25 45 1.6 6.4 0.00 0.00 0.00 65 1012.3
20260902140504 26 242 0.0 3.2 0.00 0.00 0.00 65 1012.7
20260902140009 26 136 0.0 3.2 0.00 0.00 0.00 65 1012.8
20260902135509 26 97 0.0 3.2 0.00 0.00 0.00 68 1012.6
20260902135003 26 88 0.0 4.8 0.00 0.00 0.00 67 1012.7
20260902134518 26 87 0.0 4.8 0.00 0.00 0.00 68 1012.6
20260902134006 26 110 1.6 4.8 0.00 0.00 0.00 66 1012.8
20260902133509 26 134 0.0 3.2 0.00 0.00 0.00 65 1012.8
20260902133004 26 225 0.0 3.2 0.00 0.00 0.00 67 1013.0
20260902132504 25 123 0.0 4.8 0.00 0.00 0.00 68 1012.9
20260902132003 25 221 0.0 4.8 0.00 0.00 0.00 71 1012.9
20260902131505 24 216 1.6 3.2 0.00 0.00 0.00 74 1012.9
20260902131002 24 108 0.0 3.2 0.00 0.00 0.00 77 1012.9
20260902130502 23 107 0.0 3.2 0.00 0.00 0.00 78 1013.1
20260902130009 23 108 0.0 3.2 0.00 0.00 0.00 80 1013.2
20260902125501 23 107 0.0 3.2 0.00 0.00 0.00 80 1013.2
20260902125002 22 108 0.0 3.2 0.00 0.00 0.00 80 1013.1
20260902124514 22 108 0.0 1.6 0.00 0.00 0.00 80 1013.1
20260902124005 22 108 0.0 1.6 0.00 0.00 0.00 80 1013.0
20260902123502 22 107 0.0 3.2 0.00 0.00 0.00 79 1013.0
20260902123010 22 108 0.0 3.2 0.00 0.00 0.00 78 1013.0
20260902122503 22 108 0.0 0.0 0.00 0.00 0.00 77 1012.9
20260902122002 22 107 0.0 0.0 0.00 0.00 0.00 78 1012.9
20260902121503 22 108 0.0 0.0 0.00 0.00 0.00 78 1012.9
20260902121006 22 108 0.0 0.0 0.00 0.00 0.00 78 1012.7
20260902120503 22 108 0.0 3.2 0.00 0.00 0.00 78 1012.7
20260902120006 22 108 0.0 3.2 0.00 0.00 0.00 77 1012.8
20260902115505 22 108 0.0 4.8 0.00 0.00 0.00 76 1012.7
20260902115007 22 108 0.0 4.8 0.00 0.00 0.00 75 1012.5
20260902114504 22 96 1.6 4.8 0.00 0.00 0.00 75 1012.5
20260902114007 22 95 0.0 3.2 0.00 0.00 0.00 75 1012.4
20260902113507 23 95 0.0 3.2 0.00 0.00 0.00 73 1012.4
20260902113003 22 95 0.0 3.2 0.00 0.00 0.00 74 1012.4
20260902112505 22 89 0.0 3.2 0.00 0.00 0.00 74 1012.5
20260902112007 22 89 0.0 3.2 0.00 0.00 0.00 74 1012.5
20260902111522 22 89 1.6 3.2 0.00 0.00 0.00 75 1012.6
20260902111003 22 119 0.0 0.0 0.00 0.00 0.00 75 1012.6
20260902110504 22 119 0.0 1.6 0.00 0.00 0.00 76 1012.6
20260902110008 22 119 0.0 1.6 0.00 0.00 0.00 76 1012.6
20260902105506 22 119 0.0 0.0 0.00 0.00 0.00 75 1012.5
20260902105003 22 119 0.0 0.0 0.00 0.00 0.00 76 1012.5
20260902104516 22 119 0.0 0.0 0.00 0.00 0.00 77 1012.5
20260902104009 22 119 0.0 3.2 0.00 0.00 0.00 76 1012.4
20260902103508 22 119 0.0 3.2 0.00 0.00 0.00 74 1012.4
20260902103011 23 119 0.0 3.2 0.00 0.00 0.00 74 1012.4
20260902102504 23 119 0.0 3.2 0.00 0.00 0.00 73 1012.5
20260902102013 23 119 0.0 3.2 0.00 0.00 0.00 71 1012.5
20260902101520 23 119 1.6 3.2 0.00 0.00 0.00 71 1012.6
20260902101010 23 234 1.6 3.2 0.00 0.00 0.00 71 1012.8
20260902100511 23 352 0.0 3.2 0.00 0.00 0.00 72 1012.7
20260902100011 23 352 0.0 3.2 0.00 0.00 0.00 72 1012.9
20260902095503 23 360 0.0 3.2 0.00 0.00 0.00 73 1012.9
20260902095004 23 360 0.0 1.6 0.00 0.00 0.00 72 1012.9
20260902094503 23 360 0.0 6.4 0.00 0.00 0.00 72 1012.9
20260902094006 23 360 0.0 6.4 0.00 0.00 0.00 72 1013.0
20260902093506 23 219 0.0 3.2 0.00 0.00 0.00 70 1013.0
20260902093012 23 216 0.0 3.2 0.00 0.00 0.00 67 1012.9
20260902092511 24 216 0.0 3.2 0.00 0.00 0.00 67 1012.9
20260902092007 24 216 0.0 3.2 0.00 0.00 0.00 66 1012.9
20260902091517 25 216 0.0 3.2 0.00 0.00 0.00 65 1012.8
20260902091010 25 216 0.0 3.2 0.00 0.00 0.00 64 1012.8
20260902090504 25 216 0.0 3.2 0.00 0.00 0.00 65 1012.8
20260902090017 25 216 0.0 3.2 0.00 0.00 0.00 66 1012.9
20260902085509 25 227 1.6 6.4 0.00 0.00 0.00 64 1012.9
20260902085015 25 349 1.6 6.4 0.00 0.00 0.00 64 1013.0
20260902084508 26 352 4.8 6.4 0.00 0.00 0.00 62 1013.0
20260902084008 25 344 1.6 8.0 0.00 0.00 0.00 63 1012.8
20260902083506 25 254 1.6 8.0 0.00 0.00 0.00 65 1012.9
20260902083008 25 287 1.6 4.8 0.00 0.00 0.00 67 1013.0
20260902082507 25 336 1.6 8.0 0.00 0.00 0.00 66 1013.0
20260902082012 25 352 3.2 8.0 0.00 0.00 0.00 66 1013.2
20260902081515 25 339 0.0 3.2 0.00 0.00 0.00 67 1013.2
20260902081008 25 339 0.0 6.4 0.00 0.00 0.00 65 1012.9
20260902080510 25 339 1.6 9.7 0.00 0.00 0.00 65 1013.0
20260902080011 25 15 4.8 9.7 0.00 0.00 0.00 65 1013.0
20260902075514 25 352 3.2 4.8 0.00 0.00 0.00 64 1012.7
20260902075009 25 288 1.6 4.8 0.00 0.00 0.00 63 1012.2
20260902074510 25 134 0.0 3.2 0.00 0.00 0.00 63 1012.1
20260902074014 25 134 0.0 4.8 0.00 0.00 0.00 63 1012.1
20260902073505 25 110 0.0 6.4 0.00 0.00 0.00 62 1012.1
20260902073020 25 180 1.6 6.4 0.00 0.00 0.00 62 1012.1
20260902072505 25 196 0.0 4.8 0.00 0.00 0.00 62 1012.0
20260902072013 25 246 0.0 3.2 0.00 0.00 0.00 62 1012.0
20260902071547 25 71 0.0 8.0 0.00 0.00 0.00 61 1012.0
20260902071010 25 201 0.0 8.0 0.00 0.00 0.00 62 1012.0
20260902070507 25 159 0.0 3.2 0.00 0.00 0.00 62 1012.0
20260902070012 25 107 0.0 3.2 0.00 0.00 0.00 62 1012.0
20260902065514 25 215 0.0 4.8 0.00 0.00 0.00 63 1012.0
20260902065013 25 189 1.6 4.8 0.00 0.00 0.00 63 1012.1
20260902064524 25 140 0.0 3.2 0.00 0.00 0.00 63 1012.1
20260902064007 25 138 0.0 3.2 0.00 0.00 0.00 64 1012.1
20260902063517 25 138 0.0 3.2 0.00 0.00 0.00 64 1012.1
20260902063022 25 198 0.0 3.2 0.00 0.00 0.00 62 1012.1
20260902062519 26 194 0.0 3.2 0.00 0.00 0.00 62 1012.0
20260902062012 26 209 0.0 4.8 0.00 0.00 0.00 62 1011.8
20260902061538 26 151 0.0 4.8 0.00 0.00 0.00 61 1011.8
20260902061006 26 146 0.0 6.4 0.00 0.00 0.00 61 1011.8
20260902060510 26 105 0.0 6.4 0.00 0.00 0.00 60 1011.7
20260902060015 26 215 0.0 4.8 0.00 0.00 0.00 61 1011.6
20260902055514 26 229 1.6 3.2 0.00 0.00 0.00 60 1011.6
20260902055014 26 306 0.0 4.8 0.00 0.00 0.00 61 1011.6
20260902054521 26 211 0.0 4.8 0.00 0.00 0.00 60 1011.5
20260902054014 26 160 0.0 4.8 0.00 0.00 0.00 60 1011.7
20260902053511 27 166 1.6 8.0 0.00 0.00 0.00 60 1011.8
20260902053016 27 185 1.6 8.0 0.00 0.00 0.00 60 1011.8
20260902052520 27 55 0.0 4.8 0.00 0.00 0.00 60 1011.8
20260902052009 27 180 0.0 4.8 0.00 0.00 0.00 59 1011.8
20260902051534 27 175 0.0 4.8 0.00 0.00 0.00 58 1011.9
20260902051013 27 229 0.0 8.0 0.00 0.00 0.00 59 1011.9
20260902050514 27 277 0.0 8.0 0.00 0.00 0.00 59 1011.9
20260902050014 27 139 1.6 8.0 0.00 0.00 0.00 58 1011.8
20260902045509 27 186 1.6 9.7 0.00 0.00 0.00 58 1011.8
20260902045013 27 222 0.0 9.7 0.00 0.00 0.00 59 1011.8
20260902044520 27 203 1.6 8.0 0.00 0.00 0.00 59 1011.8
20260902044012 27 140 1.6 3.2 0.00 0.00 0.00 58 1011.9
20260902043511 27 219 0.0 6.4 0.00 0.00 0.00 59 1011.9
20260902043033 27 194 0.0 6.4 0.00 0.00 0.00 59 1011.9
20260902042521 27 225 0.0 4.8 0.00 0.00 0.00 59 1011.9
20260902042016 28 173 1.6 4.8 0.00 0.00 0.00 59 1011.8
20260902041524 28 211 1.6 9.7 0.00 0.00 0.00 59 1011.9
20260902041003 27 128 1.6 9.7 0.00 0.00 0.00 61 1011.9
20260902040503 27 113 0.0 8.0 0.00 0.00 0.00 61 1011.9
20260902040013 27 166 0.0 4.8 0.00 0.00 0.00 62 1012.0
20260902035503 27 177 0.0 3.2 0.00 0.00 0.00 63 1012.0
20260902035003 27 194 0.0 3.2 0.00 0.00 0.00 63 1011.9
20260902034520 27 329 0.0 3.2 0.00 0.00 0.00 64 1012.0
20260902034007 27 186 0.0 3.2 0.00 0.00 0.00 65 1011.9
20260902033503 27 186 0.0 3.2 0.00 0.00 0.00 65 1011.9
20260902033003 27 185 0.0 3.2 0.00 0.00 0.00 65 1011.9
20260902032506 27 161 0.0 3.2 0.00 0.00 0.00 65 1011.9
20260902032004 27 161 0.0 3.2 0.00 0.00 0.00 64 1011.9
20260902031507 27 221 0.0 3.2 0.00 0.00 0.00 64 1011.9
20260902031003 27 221 0.0 3.2 0.00 0.00 0.00 66 1011.9
20260902030503 27 224 0.0 3.2 0.00 0.00 0.00 64 1011.9
20260902030003 27 224 0.0 4.8 0.00 0.00 0.00 66 1011.8
20260902025510 27 224 0.0 4.8 0.00 0.00 0.00 64 1011.8
20260902025008 27 119 0.0 3.2 0.00 0.00 0.00 66 1011.8
20260902024505 28 119 0.0 3.2 0.00 0.00 0.00 65 1011.7
20260902024007 28 119 0.0 3.2 0.00 0.00 0.00 64 1011.7
20260902023507 28 127 0.0 3.2 0.00 0.00 0.00 63 1011.6
20260902023024 28 184 0.0 3.2 0.00 0.00 0.00 64 1011.6
20260902022505 28 179 0.0 3.2 0.00 0.00 0.00 66 1011.5
20260902022003 28 179 0.0 3.2 0.00 0.00 0.00 66 1011.4
20260902021510 28 193 0.0 3.2 0.00 0.00 0.00 65 1011.3
20260902021003 28 193 0.0 3.2 0.00 0.00 0.00 65 1011.2
20260902020504 28 193 0.0 3.2 0.00 0.00 0.00 65 1011.1
20260902020011 28 193 0.0 3.2 0.00 0.00 0.00 64 1011.0
20260902015507 28 159 0.0 1.6 0.00 0.00 0.00 63 1010.9
20260902015004 28 159 0.0 3.2 0.00 0.00 0.00 64 1010.9
20260902014511 28 159 0.0 3.2 0.00 0.00 0.00 64 1010.8
20260902014003 28 159 0.0 3.2 0.00 0.00 0.00 63 1010.7
20260902013511 28 56 0.0 3.2 0.00 0.00 0.00 64 1010.7
20260902013007 28 71 0.0 3.2 0.00 0.00 0.00 65 1010.6
20260902012503 28 83 0.0 3.2 0.00 0.00 0.00 65 1010.6
20260902012016 29 83 0.0 3.2 0.00 0.00 0.00 64 1010.5
20260902011504 29 85 0.0 1.6 0.00 0.00 0.00 64 1010.6
20260902011007 29 85 0.0 3.2 0.00 0.00 0.00 64 1010.6
20260902010502 29 85 0.0 3.2 0.00 0.00 0.00 63 1010.6
20260902010009 30 85 0.0 3.2 0.00 0.00 0.00 62 1010.5
20260902005508 30 85 0.0 3.2 0.00 0.00 0.00 62 1010.5
20260902005006 30 85 0.0 1.6 0.00 0.00 0.00 60 1010.5
20260902004510 30 85 0.0 3.2 0.00 0.00 0.00 60 1010.5
20260902004003 30 85 0.0 3.2 0.00 0.00 0.00 59 1010.5
20260902003508 31 85 0.0 3.2 0.00 0.00 0.00 58 1010.4
20260902003017 31 85 0.0 3.2 0.00 0.00 0.00 55 1010.4
20260902002510 31 63 0.0 3.2 0.00 0.00 0.00 55 1010.4
20260902002004 32 182 0.0 3.2 0.00 0.00 0.00 54 1010.4
20260902001516 32 181 0.0 3.2 0.00 0.00 0.00 52 1010.4
20260902001009 32 191 0.0 4.8 0.00 0.00 0.00 53 1010.5
20260902000504 32 115 0.0 4.8 0.00 0.00 0.00 51 1010.5
20260902000016 32 140 0.0 4.8 0.00 0.00 0.00 52 1010.5
20260901235511 32 148 0.0 6.4 0.00 0.00 0.00 52 1010.6
20260901235003 33 205 0.0 9.7 0.00 0.00 0.00 52 1010.6
20260901234507 33 236 1.6 9.7 0.00 0.00 0.00 52 1010.6
20260901234007 33 171 1.6 6.4 0.00 0.00 0.00 52 1010.7
20260901233508 33 230 1.6 14.5 0.00 0.00 0.00 51 1010.7
20260901233014 33 253 3.2 14.5 0.00 0.00 0.00 49 1010.8
20260901232503 33 276 0.0 12.9 0.00 0.00 0.00 50 1010.8
20260901232015 33 277 1.6 8.0 0.00 0.00 0.00 50 1010.8
20260901231510 34 326 3.2 8.0 0.00 0.00 0.00 49 1010.7
20260901231006 34 260 1.6 8.0 0.00 0.00 0.00 50 1010.8
20260901230513 34 236 4.8 11.3 0.00 0.00 0.00 49 1010.9
20260901230012 34 185 3.2 11.3 0.00 0.00 0.00 50 1010.8
20260901225513 34 108 0.0 17.7 0.00 0.00 0.00 48 1010.9
20260901225009 34 198 3.2 17.7 0.00 0.00 0.00 50 1011.0
20260901224521 34 314 3.2 17.7 0.00 0.00 0.00 49 1011.0
20260901224005 34 235 3.2 11.3 0.00 0.00 0.00 50 1011.0
20260901223507 35 297 4.8 11.3 0.00 0.00 0.00 48 1011.0